OAL117 LGIR-LGKL

Flight info

Callsign OAL117
Flight time 0h 37m
Altitude 28000
Route BAVES J65 SOKRI
Aircraft A320/M-SDE3FGHIRWY/LB1

Departure

Time 2026-04-22 16:54
Airport Heraklion International Nikos Kazantzakis Airport (LGIR)

Arrival

Time 2026-04-22 17:32
Airport Kalamata Airport (LGKL)
Time Latitude Longitude Altitude Speed Heading
2026-04-22 16:47 35.33822 25.17414 91 ft 0 kts 317°
2026-04-22 16:49 35.33829 25.17407 91 ft 5 kts 326°
2026-04-22 16:49 35.33877 25.17382 91 ft 9 kts 347°
2026-04-22 16:49 35.33906 25.17438 91 ft 10 kts 76°
2026-04-22 16:49 35.33915 25.17531 92 ft 12 kts 83°
2026-04-22 16:50 35.33905 25.17643 93 ft 14 kts 101°
2026-04-22 16:50 35.33892 25.17773 92 ft 17 kts 96°
2026-04-22 16:50 35.33879 25.17925 92 ft 19 kts 95°
2026-04-22 16:50 35.33871 25.18101 92 ft 22 kts 91°
2026-04-22 16:51 35.33867 25.18292 93 ft 24 kts 99°
2026-04-22 16:51 35.33842 25.18495 90 ft 17 kts 95°
2026-04-22 16:51 35.33830 25.18656 90 ft 20 kts 94°
2026-04-22 16:51 35.33818 25.18838 90 ft 23 kts 96°
2026-04-22 16:52 35.33857 25.19003 89 ft 14 kts 58°
2026-04-22 16:52 35.33923 25.19024 89 ft 10 kts 306°
2026-04-22 16:52 35.33913 25.18969 87 ft 0 kts 269°
2026-04-22 16:52 35.33912 25.18960 87 ft 2 kts 269°
2026-04-22 16:53 35.33912 25.18945 89 ft 1 kts 269°
2026-04-22 16:53 35.33913 25.18920 88 ft 12 kts 273°
2026-04-22 16:53 35.33945 25.18487 90 ft 87 kts 275°
2026-04-22 16:53 35.34020 25.17501 92 ft 143 kts 276°
2026-04-22 16:54 35.34107 25.16137 279 ft 171 kts 272°
2026-04-22 16:54 35.34273 25.14658 817 ft 179 kts 296°
2026-04-22 16:54 35.35094 25.13544 1504 ft 178 kts 329°
2026-04-22 16:54 35.36212 25.12852 2098 ft 187 kts 334°
2026-04-22 16:55 35.37461 25.12171 2447 ft 210 kts 334°
2026-04-22 16:55 35.38674 25.11087 2794 ft 220 kts 307°
2026-04-22 16:55 35.39568 25.09614 3665 ft 218 kts 306°
2026-04-22 16:55 35.40486 25.08127 4559 ft 219 kts 306°
2026-04-22 16:56 35.41191 25.06491 5375 ft 219 kts 282°
2026-04-22 16:56 35.41195 25.04608 6062 ft 232 kts 257°
2026-04-22 16:56 35.40449 25.02744 6465 ft 258 kts 239°
2026-04-22 16:56 35.39458 25.00832 7131 ft 269 kts 240°
2026-04-22 16:57 35.38509 24.98831 7954 ft 272 kts 249°
2026-04-22 16:57 35.38081 24.96575 8830 ft 273 kts 269°
2026-04-22 16:57 35.38301 24.94269 9704 ft 275 kts 284°
2026-04-22 16:57 35.38752 24.91966 10341 ft 286 kts 284°
2026-04-22 16:58 35.39071 24.90349 10506 ft 302 kts 284°
2026-04-22 16:58 35.39754 24.86882 10894 ft 327 kts 284°
2026-04-22 16:58 35.40288 24.84123 11542 ft 333 kts 284°
2026-04-22 16:58 35.40821 24.81353 12332 ft 335 kts 284°
2026-04-22 16:59 35.41355 24.78566 13092 ft 337 kts 284°
2026-04-22 16:59 35.41893 24.75750 13840 ft 340 kts 284°
2026-04-22 16:59 35.42437 24.72910 14494 ft 342 kts 284°
2026-04-22 16:59 35.42975 24.70053 15113 ft 346 kts 283°
2026-04-22 17:00 35.43495 24.67189 15723 ft 349 kts 283°
2026-04-22 17:00 35.44531 24.61329 16952 ft 355 kts 283°
2026-04-22 17:00 35.45057 24.58350 17582 ft 358 kts 283°
2026-04-22 17:01 35.45591 24.55344 18209 ft 361 kts 283°
2026-04-22 17:01 35.46132 24.52318 18788 ft 365 kts 283°
2026-04-22 17:01 35.46673 24.49298 19354 ft 368 kts 283°
2026-04-22 17:01 35.47223 24.46218 19937 ft 371 kts 283°
2026-04-22 17:02 35.47780 24.43098 20524 ft 374 kts 283°
2026-04-22 17:02 35.48340 24.39956 21085 ft 378 kts 283°
2026-04-22 17:02 35.48904 24.36788 21619 ft 381 kts 283°
2026-04-22 17:02 35.49466 24.33621 22128 ft 384 kts 283°
2026-04-22 17:03 35.50035 24.30406 22624 ft 387 kts 283°
2026-04-22 17:03 35.50607 24.27155 23130 ft 390 kts 282°
2026-04-22 17:03 35.51182 24.23879 23600 ft 393 kts 283°
2026-04-22 17:03 35.51994 24.20693 24007 ft 396 kts 292°
2026-04-22 17:04 35.52827 24.18644 24306 ft 397 kts 300°
2026-04-22 17:04 35.55073 24.15057 24852 ft 402 kts 313°
2026-04-22 17:04 35.57231 24.12828 25264 ft 406 kts 320°
2026-04-22 17:04 35.59455 24.10740 25674 ft 408 kts 320°
2026-04-22 17:05 35.61712 24.08610 26070 ft 409 kts 320°
2026-04-22 17:05 35.63977 24.06460 26466 ft 411 kts 320°
2026-04-22 17:05 35.66225 24.04320 26859 ft 413 kts 319°
2026-04-22 17:05 35.68506 24.02144 27250 ft 415 kts 319°
2026-04-22 17:06 35.70804 23.99956 27632 ft 417 kts 319°
2026-04-22 17:06 35.73105 23.97767 27903 ft 418 kts 319°
2026-04-22 17:06 35.75409 23.95571 27942 ft 417 kts 319°
2026-04-22 17:06 35.77706 23.93379 27942 ft 417 kts 319°
2026-04-22 17:07 35.79974 23.91216 27941 ft 417 kts 319°
2026-04-22 17:07 35.82272 23.89024 27939 ft 417 kts 319°
2026-04-22 17:07 35.84562 23.86838 27937 ft 417 kts 319°
2026-04-22 17:07 35.86831 23.84667 27937 ft 416 kts 319°
2026-04-22 17:08 35.89124 23.82473 27938 ft 416 kts 319°
2026-04-22 17:08 35.90641 23.81020 27935 ft 416 kts 319°
2026-04-22 17:08 35.93673 23.78117 27935 ft 416 kts 319°
2026-04-22 17:08 35.95970 23.75916 27937 ft 416 kts 319°
2026-04-22 17:09 35.98253 23.73728 27935 ft 416 kts 319°
2026-04-22 17:09 35.99771 23.72271 27937 ft 415 kts 319°
2026-04-22 17:09 36.02055 23.70074 27936 ft 415 kts 319°
2026-04-22 17:09 36.05084 23.67156 27937 ft 416 kts 319°
2026-04-22 17:10 36.06624 23.65675 27939 ft 416 kts 319°
2026-04-22 17:10 36.08914 23.63476 27934 ft 416 kts 319°
2026-04-22 17:10 36.11171 23.61302 27935 ft 416 kts 319°
2026-04-22 17:10 36.13455 23.59098 27933 ft 416 kts 319°
2026-04-22 17:11 36.15745 23.56881 27936 ft 416 kts 319°
2026-04-22 17:11 36.18028 23.54670 27937 ft 416 kts 319°
2026-04-22 17:11 36.20296 23.52457 27931 ft 415 kts 317°
2026-04-22 17:11 36.22304 23.49968 27931 ft 412 kts 307°
2026-04-22 17:12 36.23940 23.47062 27931 ft 410 kts 298°
2026-04-22 17:12 36.25141 23.43856 27923 ft 409 kts 289°
2026-04-22 17:12 36.25892 23.40464 27917 ft 408 kts 281°
2026-04-22 17:12 36.26215 23.36967 27919 ft 409 kts 274°
2026-04-22 17:13 36.26359 23.33481 27917 ft 409 kts 274°
2026-04-22 17:13 36.26509 23.29966 27914 ft 409 kts 274°
2026-04-22 17:13 36.26661 23.26437 27920 ft 409 kts 274°
2026-04-22 17:13 36.26812 23.22909 27913 ft 409 kts 274°
2026-04-22 17:14 36.26963 23.19380 27918 ft 409 kts 274°
2026-04-22 17:14 36.27110 23.15886 27918 ft 410 kts 274°
2026-04-22 17:14 36.27258 23.12348 27913 ft 410 kts 274°
2026-04-22 17:14 36.27405 23.08817 27916 ft 410 kts 274°
2026-04-22 17:15 36.27502 23.06464 27914 ft 410 kts 274°
2026-04-22 17:15 36.28005 23.01782 27922 ft 409 kts 285°
2026-04-22 17:15 36.28970 22.98459 27922 ft 410 kts 295°
2026-04-22 17:15 36.30214 22.95320 27922 ft 410 kts 295°
2026-04-22 17:16 36.31467 22.92162 27928 ft 399 kts 295°
2026-04-22 17:16 36.32662 22.89136 27927 ft 382 kts 295°
2026-04-22 17:16 36.33808 22.86225 27310 ft 380 kts 295°
2026-04-22 17:16 36.34954 22.83308 27144 ft 368 kts 295°
2026-04-22 17:17 36.36062 22.80482 27015 ft 358 kts 295°
2026-04-22 17:17 36.37152 22.77700 26303 ft 363 kts 295°
2026-04-22 17:17 36.38274 22.74838 25338 ft 374 kts 295°
2026-04-22 17:17 36.39432 22.71891 24376 ft 384 kts 295°
2026-04-22 17:18 36.40621 22.68876 23409 ft 392 kts 295°
2026-04-22 17:18 36.41832 22.65805 22267 ft 399 kts 295°
2026-04-22 17:18 36.43039 22.62734 21172 ft 403 kts 295°
2026-04-22 17:18 36.44270 22.59592 20094 ft 406 kts 295°
2026-04-22 17:19 36.46736 22.53261 18011 ft 408 kts 295°
2026-04-22 17:19 36.49119 22.47139 15837 ft 406 kts 295°
2026-04-22 17:20 36.51563 22.40871 14004 ft 399 kts 295°
2026-04-22 17:20 36.53948 22.34732 12548 ft 387 kts 295°
2026-04-22 17:21 36.55099 22.31751 12021 ft 378 kts 295°
2026-04-22 17:21 36.57336 22.25960 10560 ft 370 kts 295°
2026-04-22 17:22 36.59508 22.20353 9955 ft 343 kts 295°
2026-04-22 17:22 36.60518 22.17743 9361 ft 329 kts 295°
2026-04-22 17:22 36.63220 22.13432 7825 ft 313 kts 326°
2026-04-22 17:23 36.65195 22.12391 7188 ft 307 kts 345°
2026-04-22 17:23 36.69304 22.11387 5841 ft 295 kts 346°
2026-04-22 17:23 36.71287 22.10826 5188 ft 289 kts 345°
2026-04-22 17:24 36.73214 22.10340 4894 ft 272 kts 347°
2026-04-22 17:24 36.74992 22.09935 4831 ft 248 kts 347°
2026-04-22 17:24 36.76625 22.09561 4699 ft 229 kts 347°
2026-04-22 17:24 36.78139 22.09211 4570 ft 216 kts 347°
2026-04-22 17:25 36.79582 22.08876 4447 ft 204 kts 347°
2026-04-22 17:25 36.80937 22.08562 4356 ft 192 kts 347°
2026-04-22 17:25 36.82214 22.08266 4225 ft 181 kts 347°
2026-04-22 17:25 36.83386 22.07995 4224 ft 163 kts 347°
2026-04-22 17:26 36.84455 22.07747 4112 ft 150 kts 346°
2026-04-22 17:26 36.85463 22.07513 3951 ft 145 kts 346°
2026-04-22 17:26 36.86446 22.07284 3781 ft 143 kts 346°
2026-04-22 17:26 36.87427 22.07056 3595 ft 145 kts 347°
2026-04-22 17:27 36.88431 22.06823 3408 ft 147 kts 347°
2026-04-22 17:27 36.89442 22.06588 3223 ft 148 kts 348°
2026-04-22 17:27 36.90451 22.06354 3025 ft 148 kts 347°
2026-04-22 17:27 36.91457 22.06120 2822 ft 147 kts 347°
2026-04-22 17:28 36.92463 22.05886 2629 ft 147 kts 348°
2026-04-22 17:28 36.93454 22.05656 2452 ft 141 kts 348°
2026-04-22 17:28 36.94404 22.05436 2247 ft 137 kts 348°
2026-04-22 17:28 36.95342 22.05217 2065 ft 137 kts 347°
2026-04-22 17:29 36.96281 22.04999 1877 ft 138 kts 348°
2026-04-22 17:29 36.97234 22.04777 1701 ft 141 kts 349°
2026-04-22 17:29 36.98206 22.04551 1512 ft 144 kts 350°
2026-04-22 17:29 36.99207 22.04318 1328 ft 148 kts 351°
2026-04-22 17:30 37.00218 22.04083 1132 ft 147 kts 352°
2026-04-22 17:30 37.01226 22.03848 936 ft 147 kts 351°
2026-04-22 17:30 37.02217 22.03617 733 ft 143 kts 350°
2026-04-22 17:30 37.03186 22.03391 547 ft 141 kts 349°
2026-04-22 17:31 37.04142 22.03169 365 ft 139 kts 349°
2026-04-22 17:31 37.05086 22.02948 182 ft 138 kts 349°
2026-04-22 17:31 37.06027 22.02725 41 ft 134 kts 348°
2026-04-22 17:31 37.06760 22.02555 33 ft 54 kts 349°
2026-04-22 17:32 37.07090 22.02479 33 ft 43 kts 351°
2026-04-22 17:32 37.07186 22.02509 32 ft 12 kts 74°
2026-04-22 17:32 37.07155 22.02587 34 ft 11 kts 153°
2026-04-22 17:32 37.07072 22.02612 33 ft 13 kts 169°
2026-04-22 17:33 37.07008 22.02627 34 ft 15 kts 169°
2026-04-22 17:33 37.06852 22.02666 34 ft 19 kts 168°
2026-04-22 17:33 37.06714 22.02701 34 ft 22 kts 171°
2026-04-22 17:33 37.06556 22.02735 32 ft 24 kts 169°
2026-04-22 17:34 37.06384 22.02777 34 ft 26 kts 169°
2026-04-22 17:34 37.06197 22.02819 34 ft 28 kts 170°
2026-04-22 17:34 37.05997 22.02859 34 ft 30 kts 170°
2026-04-22 17:34 37.05818 22.02905 34 ft 23 kts 167°
2026-04-22 17:35 37.05682 22.02936 33 ft 21 kts 170°
2026-04-22 17:35 37.05557 22.02969 33 ft 6 kts 163°
2026-04-22 17:35 37.05544 22.03014 32 ft 7 kts 106°
2026-04-22 17:35 37.05533 22.03083 35 ft 10 kts 102°
2026-04-22 17:36 37.05509 22.03172 35 ft 9 kts 107°
2026-04-22 17:36 37.05499 22.03254 35 ft 5 kts 69°
2026-04-22 17:36 37.05528 22.03260 35 ft 4 kts 334°
2026-04-22 17:36 37.05536 22.03248 35 ft 0 kts 302°